| time (UTC) | temp F | wind direction | speed MPH | gust MPH | rain 1hr in | rain 24hr in | rain mn in | humidity % | barometer mb |
| 20260831110122 | 67 | 5 | 0.0 | 2.0 | 0.00 | 0.02 | 0.00 | 91 | 1018.4 |
| 20260831105906 | 67 | 5 | 0.0 | 2.0 | 0.00 | 0.02 | 0.00 | 91 | 1018.4 |
| 20260831105625 | 67 | 5 | 0.0 | 2.0 | 0.00 | 0.02 | 0.00 | 91 | 1018.4 |
| 20260831105410 | 67 | 5 | 1.0 | 2.0 | 0.00 | 0.02 | 0.00 | 90 | 1018.5 |
| 20260831105124 | 67 | 4 | 1.0 | 2.0 | 0.00 | 0.02 | 0.00 | 90 | 1018.4 |
| 20260831104907 | 67 | 5 | 0.0 | 1.0 | 0.00 | 0.02 | 0.00 | 90 | 1018.5 |
| 20260831104620 | 67 | 5 | 0.0 | 1.0 | 0.00 | 0.02 | 0.00 | 90 | 1018.6 |
| 20260831104426 | 67 | 4 | 1.0 | 1.0 | 0.00 | 0.02 | 0.00 | 90 | 1018.6 |
| 20260831104146 | 67 | 4 | 1.0 | 1.0 | 0.00 | 0.02 | 0.00 | 90 | 1018.7 |
| 20260831103925 | 68 | 4 | 0.0 | 1.0 | 0.00 | 0.02 | 0.00 | 90 | 1018.6 |
| 20260831103628 | 68 | 4 | 0.0 | 2.0 | 0.00 | 0.02 | 0.00 | 90 | 1018.6 |
| 20260831103429 | 68 | 4 | 0.0 | 2.0 | 0.00 | 0.02 | 0.00 | 90 | 1018.6 |
| 20260831103106 | 68 | 5 | 1.0 | 2.0 | 0.00 | 0.02 | 0.00 | 90 | 1018.6 |
| 20260831102907 | 68 | 4 | 1.0 | 2.0 | 0.00 | 0.02 | 0.00 | 90 | 1018.5 |
| 20260831102624 | 68 | 5 | 0.0 | 2.0 | 0.00 | 0.02 | 0.00 | 90 | 1018.3 |
| 20260831102430 | 68 | 5 | 0.0 | 2.0 | 0.00 | 0.02 | 0.00 | 90 | 1018.3 |
| 20260831102127 | 68 | 4 | 1.0 | 2.0 | 0.00 | 0.02 | 0.00 | 90 | 1018.3 |
| 20260831101908 | 68 | 4 | 1.0 | 2.0 | 0.00 | 0.02 | 0.00 | 90 | 1018.2 |
| 20260831101606 | 68 | 4 | 1.0 | 3.0 | 0.00 | 0.02 | 0.00 | 90 | 1018.3 |
| 20260831101406 | 68 | 4 | 1.0 | 3.0 | 0.00 | 0.02 | 0.00 | 90 | 1018.3 |
| 20260831101131 | 68 | 4 | 2.0 | 3.0 | 0.00 | 0.02 | 0.00 | 90 | 1018.2 |
| 20260831100911 | 68 | 4 | 2.0 | 2.0 | 0.00 | 0.02 | 0.00 | 90 | 1018.2 |
| 20260831100609 | 68 | 5 | 1.0 | 2.0 | 0.00 | 0.02 | 0.00 | 90 | 1018.1 |
| 20260831100435 | 68 | 5 | 1.0 | 2.0 | 0.00 | 0.02 | 0.00 | 90 | 1018.0 |
| 20260831100133 | 68 | 5 | 1.0 | 2.0 | 0.00 | 0.02 | 0.00 | 90 | 1018.0 |
| 20260831095939 | 68 | 4 | 0.0 | 1.0 | 0.00 | 0.02 | 0.00 | 90 | 1018.0 |
| 20260831095615 | 68 | 5 | 0.0 | 1.0 | 0.00 | 0.02 | 0.00 | 91 | 1018.0 |
| 20260831095414 | 68 | 5 | 0.0 | 0.0 | 0.00 | 0.02 | 0.00 | 90 | 1018.1 |
| 20260831095112 | 68 | 5 | 0.0 | 2.0 | 0.00 | 0.02 | 0.00 | 90 | 1017.9 |
| 20260831094918 | 68 | 5 | 0.0 | 2.0 | 0.00 | 0.02 | 0.00 | 90 | 1017.9 |
| 20260831094638 | 68 | 5 | 0.0 | 2.0 | 0.00 | 0.02 | 0.00 | 90 | 1018.0 |
| 20260831094443 | 68 | 4 | 0.0 | 2.0 | 0.00 | 0.02 | 0.00 | 90 | 1018.1 |
| 20260831094141 | 68 | 5 | 0.0 | 2.0 | 0.00 | 0.02 | 0.00 | 90 | 1018.0 |
| 20260831093928 | 68 | 5 | 1.0 | 2.0 | 0.00 | 0.02 | 0.00 | 90 | 1018.0 |
| 20260831093624 | 68 | 5 | 1.0 | 3.0 | 0.00 | 0.02 | 0.00 | 90 | 1018.0 |
| 20260831093424 | 68 | 5 | 0.0 | 3.0 | 0.00 | 0.02 | 0.00 | 90 | 1017.9 |
| 20260831093122 | 68 | 5 | 1.0 | 3.0 | 0.00 | 0.02 | 0.00 | 90 | 1017.9 |
| 20260831092923 | 68 | 5 | 1.0 | 2.0 | 0.00 | 0.02 | 0.00 | 90 | 1017.9 |
| 20260831092619 | 68 | 5 | 0.0 | 3.0 | 0.00 | 0.02 | 0.00 | 90 | 1017.7 |
| 20260831092425 | 68 | 6 | 0.0 | 4.0 | 0.00 | 0.02 | 0.00 | 90 | 1017.7 |
| 20260831092123 | 68 | 6 | 1.0 | 4.0 | 0.00 | 0.02 | 0.00 | 89 | 1017.6 |
| 20260831091942 | 68 | 5 | 2.0 | 4.0 | 0.00 | 0.02 | 0.00 | 89 | 1017.6 |
| 20260831091642 | 68 | 5 | 2.0 | 4.0 | 0.00 | 0.02 | 0.00 | 89 | 1017.5 |
| 20260831091405 | 68 | 351 | 2.0 | 3.0 | 0.00 | 0.02 | 0.00 | 89 | 1017.5 |
| 20260831091125 | 68 | 351 | 1.0 | 3.0 | 0.00 | 0.02 | 0.00 | 89 | 1017.6 |
| 20260831090930 | 68 | 351 | 0.0 | 2.0 | 0.00 | 0.02 | 0.00 | 89 | 1017.6 |
| 20260831090624 | 68 | 351 | 0.0 | 2.0 | 0.00 | 0.02 | 0.00 | 89 | 1017.5 |
| 20260831090408 | 68 | 351 | 0.0 | 2.0 | 0.00 | 0.02 | 0.00 | 89 | 1017.5 |
| 20260831090150 | 68 | 351 | 1.0 | 2.0 | 0.00 | 0.02 | 0.00 | 89 | 1017.6 |
| 20260831085934 | 68 | 351 | 0.0 | 2.0 | 0.00 | 0.02 | 0.00 | 89 | 1017.6 |
| 20260831085607 | 68 | 351 | 1.0 | 2.0 | 0.00 | 0.02 | 0.00 | 89 | 1017.6 |
| 20260831085411 | 69 | 351 | 0.0 | 2.0 | 0.00 | 0.02 | 0.00 | 89 | 1017.6 |
| 20260831085131 | 69 | 351 | 0.0 | 1.0 | 0.00 | 0.02 | 0.00 | 89 | 1017.7 |
| 20260831084915 | 69 | 351 | 0.0 | 3.0 | 0.00 | 0.02 | 0.00 | 89 | 1017.7 |
| 20260831084609 | 69 | 351 | 0.0 | 3.0 | 0.00 | 0.02 | 0.00 | 89 | 1017.7 |
| 20260831084442 | 69 | 351 | 0.0 | 3.0 | 0.00 | 0.02 | 0.00 | 89 | 1017.7 |
| 20260831084113 | 69 | 351 | 1.0 | 2.0 | 0.00 | 0.02 | 0.00 | 89 | 1017.7 |
| 20260831083918 | 69 | 351 | 1.0 | 2.0 | 0.00 | 0.02 | 0.00 | 89 | 1017.7 |
| 20260831083611 | 69 | 351 | 1.0 | 4.0 | 0.00 | 0.02 | 0.00 | 89 | 1017.7 |
| 20260831083415 | 69 | 351 | 0.0 | 4.0 | 0.00 | 0.02 | 0.00 | 89 | 1017.7 |
| 20260831083109 | 69 | 351 | 1.0 | 4.0 | 0.00 | 0.02 | 0.00 | 89 | 1017.7 |
| 20260831082920 | 69 | 351 | 2.0 | 4.0 | 0.00 | 0.02 | 0.00 | 89 | 1017.7 |
| 20260831082613 | 69 | 351 | 1.0 | 3.0 | 0.00 | 0.02 | 0.00 | 89 | 1017.6 |
| 20260831082418 | 69 | 351 | 1.0 | 2.0 | 0.00 | 0.02 | 0.00 | 90 | 1017.6 |
| 20260831082112 | 69 | 351 | 0.0 | 0.0 | 0.00 | 0.02 | 0.00 | 90 | 1017.6 |
| 20260831081916 | 69 | 351 | 0.0 | 0.0 | 0.00 | 0.02 | 0.00 | 90 | 1017.7 |
| 20260831081616 | 69 | 351 | 0.0 | 0.0 | 0.00 | 0.02 | 0.00 | 90 | 1017.6 |
| 20260831081421 | 69 | 351 | 0.0 | 0.0 | 0.00 | 0.02 | 0.00 | 89 | 1017.6 |
| 20260831081112 | 69 | 351 | 0.0 | 0.0 | 0.00 | 0.02 | 0.00 | 89 | 1017.6 |
| 20260831080916 | 69 | 351 | 0.0 | 0.0 | 0.00 | 0.02 | 0.00 | 89 | 1017.6 |
| 20260831080637 | 69 | 351 | 0.0 | 1.0 | 0.00 | 0.02 | 0.00 | 89 | 1017.6 |
| 20260831080421 | 69 | 351 | 0.0 | 2.0 | 0.00 | 0.02 | 0.00 | 89 | 1017.6 |
| 20260831080115 | 69 | 351 | 0.0 | 3.0 | 0.00 | 0.02 | 0.00 | 89 | 1017.4 |
| 20260831075925 | 69 | 351 | 0.0 | 5.0 | 0.00 | 0.02 | 0.00 | 89 | 1017.5 |
| 20260831075619 | 69 | 351 | 1.0 | 5.0 | 0.00 | 0.02 | 0.00 | 90 | 1017.6 |
| 20260831075440 | 69 | 351 | 2.0 | 5.0 | 0.00 | 0.02 | 0.00 | 90 | 1017.6 |
| 20260831075117 | 69 | 334 | 3.0 | 4.0 | 0.00 | 0.02 | 0.00 | 90 | 1017.5 |
| 20260831074924 | 69 | 320 | 3.0 | 4.0 | 0.00 | 0.02 | 0.00 | 90 | 1017.5 |
| 20260831074621 | 69 | 304 | 2.0 | 3.0 | 0.00 | 0.02 | 0.00 | 91 | 1017.5 |
| 20260831074405 | 69 | 304 | 2.0 | 3.0 | 0.00 | 0.02 | 0.00 | 91 | 1017.5 |
| 20260831074119 | 69 | 303 | 2.0 | 4.0 | 0.00 | 0.02 | 0.00 | 91 | 1017.5 |
| 20260831073920 | 69 | 286 | 0.0 | 4.0 | 0.00 | 0.02 | 0.00 | 92 | 1017.5 |
| 20260831073624 | 69 | 286 | 0.0 | 4.0 | 0.00 | 0.02 | 0.00 | 92 | 1017.5 |
| 20260831073424 | 69 | 286 | 2.0 | 4.0 | 0.00 | 0.02 | 0.00 | 92 | 1017.5 |
| 20260831073122 | 68 | 281 | 1.0 | 2.0 | 0.00 | 0.02 | 0.00 | 93 | 1017.5 |
| 20260831072907 | 68 | 281 | 1.0 | 2.0 | 0.00 | 0.02 | 0.00 | 93 | 1017.5 |
| 20260831072621 | 68 | 281 | 1.0 | 2.0 | 0.00 | 0.02 | 0.00 | 93 | 1017.5 |
| 20260831072426 | 68 | 281 | 0.0 | 2.0 | 0.00 | 0.02 | 0.00 | 93 | 1017.6 |
| 20260831072124 | 68 | 281 | 1.0 | 2.0 | 0.00 | 0.02 | 0.00 | 93 | 1017.5 |
| 20260831071907 | 68 | 281 | 1.0 | 2.0 | 0.00 | 0.02 | 0.00 | 94 | 1017.5 |
| 20260831071648 | 68 | 281 | 1.0 | 3.0 | 0.00 | 0.02 | 0.00 | 94 | 1017.6 |
| 20260831071428 | 68 | 281 | 0.0 | 3.0 | 0.00 | 0.02 | 0.00 | 94 | 1017.6 |
| 20260831071106 | 68 | 281 | 1.0 | 3.0 | 0.00 | 0.02 | 0.00 | 94 | 1017.6 |
| 20260831070906 | 68 | 281 | 1.0 | 3.0 | 0.00 | 0.02 | 0.00 | 94 | 1017.6 |
| 20260831070651 | 68 | 281 | 1.0 | 3.0 | 0.00 | 0.02 | 0.00 | 94 | 1017.6 |
| 20260831070410 | 68 | 281 | 1.0 | 2.0 | 0.00 | 0.02 | 0.00 | 94 | 1017.5 |
| 20260831070108 | 68 | 281 | 1.0 | 2.0 | 0.00 | 0.02 | 0.00 | 94 | 1017.5 |
| 20260831065909 | 68 | 281 | 1.0 | 1.0 | 0.00 | 0.02 | 0.00 | 94 | 1017.6 |
| 20260831065606 | 68 | 281 | 0.0 | 1.0 | 0.00 | 0.02 | 0.00 | 94 | 1017.6 |
| 20260831065407 | 68 | 281 | 0.0 | 1.0 | 0.00 | 0.02 | 0.00 | 94 | 1017.7 |
| 20260831065111 | 68 | 281 | 0.0 | 1.0 | 0.00 | 0.02 | 0.00 | 94 | 1017.8 |
| 20260831064910 | 68 | 281 | 0.0 | 1.0 | 0.00 | 0.02 | 0.00 | 94 | 1017.7 |
| 20260831064607 | 68 | 281 | 0.0 | 2.0 | 0.00 | 0.02 | 0.00 | 94 | 1017.7 |
| 20260831064407 | 68 | 281 | 0.0 | 2.0 | 0.00 | 0.02 | 0.00 | 94 | 1017.7 |
| 20260831064133 | 68 | 281 | 0.0 | 2.0 | 0.00 | 0.02 | 0.00 | 94 | 1017.7 |
| 20260831063933 | 69 | 281 | 1.0 | 2.0 | 0.00 | 0.02 | 0.00 | 94 | 1017.7 |
| 20260831063618 | 69 | 281 | 1.0 | 2.0 | 0.00 | 0.02 | 0.00 | 94 | 1017.7 |
| 20260831063417 | 68 | 281 | 1.0 | 2.0 | 0.00 | 0.02 | 0.00 | 94 | 1017.7 |
| 20260831063115 | 69 | 281 | 1.0 | 2.0 | 0.00 | 0.02 | 0.00 | 94 | 1017.7 |
| 20260831062915 | 68 | 281 | 1.0 | 3.0 | 0.00 | 0.02 | 0.00 | 94 | 1017.8 |
| 20260831062612 | 68 | 281 | 0.0 | 3.0 | 0.00 | 0.02 | 0.00 | 94 | 1017.7 |
| 20260831062421 | 68 | 281 | 0.0 | 3.0 | 0.00 | 0.02 | 0.00 | 94 | 1017.7 |
| 20260831062117 | 68 | 281 | 0.0 | 1.0 | 0.00 | 0.02 | 0.00 | 94 | 1017.6 |
| 20260831061916 | 68 | 281 | 0.0 | 2.0 | 0.00 | 0.02 | 0.00 | 94 | 1017.6 |
| 20260831061614 | 68 | 281 | 0.0 | 2.0 | 0.00 | 0.02 | 0.00 | 95 | 1017.6 |
| 20260831061414 | 68 | 281 | 1.0 | 3.0 | 0.00 | 0.02 | 0.00 | 95 | 1017.6 |
| 20260831061117 | 68 | 281 | 1.0 | 3.0 | 0.00 | 0.02 | 0.00 | 95 | 1017.7 |
| 20260831060917 | 68 | 281 | 2.0 | 3.0 | 0.00 | 0.02 | 0.00 | 95 | 1017.7 |
| 20260831060615 | 68 | 281 | 2.0 | 3.0 | 0.00 | 0.02 | 0.00 | 95 | 1017.7 |
| 20260831060416 | 68 | 280 | 1.0 | 3.0 | 0.00 | 0.02 | 0.00 | 95 | 1017.7 |
| 20260831060141 | 68 | 280 | 1.0 | 3.0 | 0.00 | 0.02 | 0.00 | 95 | 1017.6 |
| 20260831055921 | 68 | 280 | 1.0 | 3.0 | 0.00 | 0.02 | 0.00 | 95 | 1017.6 |
| 20260831055618 | 68 | 268 | 1.0 | 3.0 | 0.00 | 0.02 | 0.00 | 95 | 1017.6 |
| 20260831055419 | 68 | 268 | 0.0 | 1.0 | 0.00 | 0.02 | 0.00 | 95 | 1017.6 |
| 20260831055123 | 69 | 268 | 1.0 | 1.0 | 0.00 | 0.02 | 0.00 | 95 | 1017.8 |
| 20260831054923 | 69 | 268 | 0.0 | 2.0 | 0.00 | 0.02 | 0.00 | 95 | 1017.8 |
| 20260831054621 | 69 | 268 | 0.0 | 3.0 | 0.00 | 0.02 | 0.00 | 95 | 1017.8 |
| 20260831054422 | 69 | 268 | 0.0 | 3.0 | 0.00 | 0.02 | 0.00 | 95 | 1017.8 |
| 20260831054118 | 69 | 268 | 1.0 | 3.0 | 0.00 | 0.02 | 0.00 | 95 | 1017.9 |
| 20260831053925 | 69 | 268 | 1.0 | 3.0 | 0.00 | 0.02 | 0.00 | 95 | 1017.9 |
| 20260831053623 | 69 | 267 | 1.0 | 2.0 | 0.00 | 0.02 | 0.00 | 95 | 1017.9 |
| 20260831053424 | 69 | 267 | 1.0 | 2.0 | 0.00 | 0.02 | 0.00 | 95 | 1017.8 |
| 20260831053122 | 69 | 267 | 0.0 | 2.0 | 0.00 | 0.02 | 0.00 | 95 | 1017.9 |
| 20260831052921 | 69 | 267 | 0.0 | 2.0 | 0.00 | 0.02 | 0.00 | 95 | 1017.9 |
| 20260831052626 | 69 | 267 | 1.0 | 2.0 | 0.00 | 0.02 | 0.00 | 95 | 1018.0 |
| 20260831052425 | 69 | 267 | 0.0 | 2.0 | 0.00 | 0.02 | 0.00 | 95 | 1018.0 |
| 20260831052144 | 69 | 267 | 0.0 | 2.0 | 0.00 | 0.02 | 0.00 | 95 | 1018.0 |
| 20260831051932 | 69 | 267 | 1.0 | 2.0 | 0.00 | 0.02 | 0.00 | 95 | 1018.1 |
| 20260831051608 | 69 | 267 | 0.0 | 1.0 | 0.00 | 0.02 | 0.00 | 94 | 1018.0 |
| 20260831051407 | 69 | 267 | 0.0 | 2.0 | 0.00 | 0.02 | 0.00 | 94 | 1017.9 |
| 20260831051124 | 69 | 267 | 0.0 | 2.0 | 0.00 | 0.02 | 0.00 | 94 | 1017.8 |
| 20260831050932 | 69 | 267 | 0.0 | 2.0 | 0.00 | 0.02 | 0.00 | 94 | 1017.8 |
| 20260831050608 | 69 | 267 | 0.0 | 1.0 | 0.00 | 0.02 | 0.00 | 94 | 1017.7 |
| 20260831050409 | 69 | 267 | 0.0 | 1.0 | 0.00 | 0.02 | 0.00 | 94 | 1017.7 |
| 20260831050106 | 69 | 267 | 0.0 | 1.0 | 0.00 | 0.02 | 0.00 | 94 | 1017.6 |
| 20260831045906 | 69 | 267 | 0.0 | 1.0 | 0.00 | 0.02 | 0.00 | 94 | 1017.7 |
| 20260831045630 | 69 | 267 | 0.0 | 1.0 | 0.00 | 0.02 | 0.00 | 94 | 1017.8 |
| 20260831045410 | 70 | 267 | 0.0 | 2.0 | 0.00 | 0.02 | 0.00 | 94 | 1017.8 |
| 20260831045130 | 70 | 267 | 0.0 | 2.0 | 0.00 | 0.02 | 0.00 | 94 | 1017.8 |
| 20260831044909 | 70 | 267 | 0.0 | 2.0 | 0.00 | 0.02 | 0.00 | 94 | 1017.9 |
| 20260831044613 | 70 | 267 | 1.0 | 2.0 | 0.00 | 0.02 | 0.00 | 94 | 1017.8 |
| 20260831044413 | 70 | 267 | 1.0 | 2.0 | 0.00 | 0.02 | 0.00 | 94 | 1017.8 |
| 20260831044111 | 70 | 267 | 1.0 | 2.0 | 0.00 | 0.02 | 0.00 | 94 | 1017.8 |
| 20260831043912 | 70 | 267 | 0.0 | 1.0 | 0.00 | 0.02 | 0.00 | 94 | 1017.8 |
| 20260831043610 | 71 | 267 | 0.0 | 1.0 | 0.00 | 0.02 | 0.00 | 95 | 1017.7 |
| 20260831043435 | 71 | 267 | 0.0 | 1.0 | 0.00 | 0.02 | 0.00 | 95 | 1017.8 |
| 20260831043111 | 71 | 267 | 0.0 | 1.0 | 0.00 | 0.02 | 0.00 | 95 | 1017.7 |
| 20260831042910 | 70 | 267 | 0.0 | 1.0 | 0.00 | 0.02 | 0.00 | 95 | 1017.7 |
| 20260831042614 | 71 | 267 | 0.0 | 1.0 | 0.00 | 0.02 | 0.00 | 95 | 1017.7 |
| 20260831042413 | 71 | 267 | 0.0 | 1.0 | 0.00 | 0.02 | 0.00 | 95 | 1017.7 |
| 20260831042111 | 71 | 267 | 0.0 | 1.0 | 0.00 | 0.02 | 0.00 | 95 | 1017.7 |
| 20260831041911 | 71 | 267 | 0.0 | 1.0 | 0.00 | 0.02 | 0.00 | 95 | 1017.6 |
| 20260831041407 | 71 | 267 | 0.0 | 3.0 | 0.01 | 0.02 | 0.00 | 95 | 1017.5 |
| 20260831041147 | 71 | 267 | 0.0 | 3.0 | 0.01 | 0.02 | 0.00 | 95 | 1017.5 |
| 20260831040911 | 71 | 267 | 1.0 | 3.0 | 0.01 | 0.02 | 0.00 | 95 | 1017.4 |
| 20260831040622 | 71 | 262 | 2.0 | 3.0 | 0.01 | 0.02 | 0.00 | 94 | 1017.4 |
| 20260831040407 | 71 | 255 | 1.0 | 2.0 | 0.01 | 0.02 | 0.00 | 94 | 1017.4 |
| 20260831040121 | 71 | 255 | 0.0 | 2.0 | 0.01 | 0.02 | 0.00 | 94 | 1017.4 |
| 20260831035930 | 72 | 255 | 0.0 | 0.0 | 0.01 | 0.02 | 0.00 | 94 | 1017.4 |
| 20260831035624 | 72 | 255 | 0.0 | 1.0 | 0.01 | 0.02 | 0.00 | 95 | 1017.4 |
| 20260831035408 | 72 | 255 | 0.0 | 2.0 | 0.01 | 0.02 | 0.00 | 95 | 1017.4 |
| 20260831035121 | 72 | 255 | 0.0 | 2.0 | 0.01 | 0.02 | 0.00 | 95 | 1017.4 |
| 20260831034927 | 72 | 255 | 0.0 | 2.0 | 0.01 | 0.02 | 0.02 | 95 | 1017.4 |
| 20260831034625 | 72 | 255 | 1.0 | 2.0 | 0.01 | 0.02 | 0.02 | 94 | 1017.4 |
| 20260831034429 | 72 | 255 | 1.0 | 2.0 | 0.01 | 0.02 | 0.02 | 94 | 1017.4 |
| 20260831034123 | 72 | 255 | 1.0 | 2.0 | 0.01 | 0.02 | 0.02 | 94 | 1017.4 |
| 20260831033907 | 72 | 255 | 1.0 | 2.0 | 0.01 | 0.02 | 0.02 | 94 | 1017.4 |
| 20260831033621 | 72 | 255 | 0.0 | 1.0 | 0.01 | 0.02 | 0.02 | 94 | 1017.5 |
| 20260831033406 | 72 | 255 | 0.0 | 0.0 | 0.01 | 0.02 | 0.02 | 94 | 1017.5 |
| 20260831033126 | 72 | 255 | 0.0 | 1.0 | 0.01 | 0.02 | 0.02 | 94 | 1017.5 |
| 20260831032910 | 72 | 255 | 0.0 | 1.0 | 0.01 | 0.02 | 0.02 | 94 | 1017.5 |
| 20260831032624 | 72 | 255 | 0.0 | 1.0 | 0.01 | 0.02 | 0.02 | 94 | 1017.6 |
| 20260831032409 | 72 | 255 | 1.0 | 1.0 | 0.01 | 0.02 | 0.02 | 94 | 1017.6 |
| 20260831032123 | 72 | 255 | 0.0 | 1.0 | 0.01 | 0.02 | 0.02 | 94 | 1017.6 |
| 20260831031912 | 73 | 255 | 0.0 | 1.0 | 0.01 | 0.02 | 0.02 | 94 | 1017.6 |
| 20260831031627 | 73 | 255 | 0.0 | 1.0 | 0.01 | 0.02 | 0.02 | 95 | 1017.7 |
| 20260831031417 | 73 | 255 | 0.0 | 1.0 | 0.00 | 0.01 | 0.01 | 95 | 1017.7 |
| 20260831031110 | 72 | 255 | 0.0 | 1.0 | 0.00 | 0.01 | 0.01 | 94 | 1017.7 |
| 20260831030915 | 72 | 255 | 0.0 | 1.0 | 0.00 | 0.01 | 0.01 | 94 | 1017.6 |
| 20260831030609 | 72 | 255 | 0.0 | 2.0 | 0.00 | 0.01 | 0.01 | 94 | 1017.6 |
| 20260831030421 | 73 | 255 | 0.0 | 2.0 | 0.00 | 0.01 | 0.01 | 94 | 1017.6 |
| 20260831030113 | 73 | 255 | 1.0 | 2.0 | 0.00 | 0.01 | 0.01 | 94 | 1017.7 |
| 20260831025918 | 73 | 255 | 1.0 | 2.0 | 0.00 | 0.01 | 0.01 | 94 | 1017.7 |
| 20260831025612 | 73 | 255 | 1.0 | 1.0 | 0.00 | 0.01 | 0.01 | 93 | 1017.8 |
| 20260831025417 | 73 | 255 | 1.0 | 1.0 | 0.00 | 0.01 | 0.01 | 93 | 1017.7 |
| 20260831025138 | 73 | 255 | 0.0 | 1.0 | 0.00 | 0.01 | 0.01 | 93 | 1017.7 |
| 20260831024921 | 73 | 255 | 0.0 | 1.0 | 0.00 | 0.01 | 0.01 | 93 | 1017.8 |
| 20260831024634 | 73 | 255 | 0.0 | 1.0 | 0.00 | 0.01 | 0.01 | 93 | 1017.8 |
| 20260831024424 | 73 | 255 | 0.0 | 1.0 | 0.00 | 0.01 | 0.01 | 93 | 1017.8 |
| 20260831024116 | 73 | 255 | 0.0 | 1.0 | 0.00 | 0.01 | 0.01 | 93 | 1017.7 |
| 20260831023921 | 73 | 255 | 0.0 | 1.0 | 0.00 | 0.01 | 0.01 | 93 | 1017.7 |
| 20260831023642 | 73 | 255 | 0.0 | 1.0 | 0.00 | 0.01 | 0.01 | 92 | 1017.7 |
| 20260831023443 | 73 | 255 | 0.0 | 1.0 | 0.00 | 0.01 | 0.01 | 92 | 1017.7 |
| 20260831023120 | 73 | 255 | 0.0 | 1.0 | 0.00 | 0.01 | 0.01 | 92 | 1017.7 |
| 20260831022926 | 73 | 255 | 0.0 | 1.0 | 0.00 | 0.01 | 0.01 | 92 | 1017.7 |
| 20260831022624 | 73 | 255 | 0.0 | 1.0 | 0.00 | 0.01 | 0.01 | 92 | 1017.8 |
| 20260831022425 | 73 | 255 | 0.0 | 1.0 | 0.00 | 0.01 | 0.01 | 92 | 1017.9 |
| 20260831022123 | 73 | 255 | 0.0 | 1.0 | 0.00 | 0.01 | 0.01 | 92 | 1017.9 |
| 20260831021923 | 73 | 255 | 0.0 | 2.0 | 0.00 | 0.01 | 0.01 | 92 | 1018.0 |
| 20260831021627 | 73 | 255 | 0.0 | 2.0 | 0.00 | 0.01 | 0.01 | 92 | 1017.9 |
| 20260831021407 | 73 | 255 | 1.0 | 2.0 | 0.00 | 0.01 | 0.01 | 92 | 1017.9 |
| 20260831021105 | 73 | 255 | 0.0 | 4.0 | 0.00 | 0.01 | 0.01 | 91 | 1017.8 |
| 20260831020952 | 73 | 255 | 0.0 | 4.0 | 0.00 | 0.01 | 0.01 | 91 | 1017.8 |
| 20260831020630 | 73 | 255 | 1.0 | 4.0 | 0.00 | 0.01 | 0.01 | 91 | 1017.9 |
| 20260831020409 | 73 | 255 | 2.0 | 4.0 | 0.00 | 0.01 | 0.01 | 91 | 1017.9 |
| 20260831020132 | 73 | 256 | 1.0 | 3.0 | 0.00 | 0.01 | 0.01 | 91 | 1018.0 |
| 20260831015912 | 73 | 256 | 1.0 | 4.0 | 0.00 | 0.01 | 0.01 | 92 | 1018.1 |
| 20260831015631 | 73 | 256 | 1.0 | 6.0 | 0.00 | 0.01 | 0.01 | 92 | 1018.1 |
| 20260831015416 | 73 | 256 | 1.0 | 6.0 | 0.00 | 0.01 | 0.01 | 92 | 1018.1 |
| 20260831015113 | 73 | 254 | 1.0 | 6.0 | 0.00 | 0.01 | 0.01 | 92 | 1018.1 |
| 20260831014914 | 73 | 248 | 1.0 | 3.0 | 0.00 | 0.01 | 0.01 | 93 | 1018.1 |
| 20260831014612 | 73 | 241 | 1.0 | 3.0 | 0.01 | 0.01 | 0.01 | 94 | 1018.1 |
| 20260831014411 | 73 | 241 | 1.0 | 3.0 | 0.01 | 0.01 | 0.01 | 94 | 1018.0 |
| 20260831014116 | 73 | 229 | 1.0 | 3.0 | 0.01 | 0.01 | 0.01 | 93 | 1018.0 |
| 20260831013936 | 73 | 229 | 1.0 | 3.0 | 0.01 | 0.01 | 0.01 | 93 | 1017.9 |
| 20260831013612 | 73 | 229 | 0.0 | 2.0 | 0.01 | 0.01 | 0.01 | 94 | 1017.8 |
| 20260831013413 | 73 | 229 | 0.0 | 2.0 | 0.01 | 0.01 | 0.01 | 93 | 1017.8 |
| 20260831013117 | 73 | 229 | 0.0 | 3.0 | 0.01 | 0.01 | 0.01 | 93 | 1017.8 |
| 20260831012917 | 73 | 229 | 1.0 | 3.0 | 0.01 | 0.01 | 0.01 | 93 | 1017.9 |
| 20260831012614 | 73 | 229 | 1.0 | 3.0 | 0.01 | 0.01 | 0.01 | 93 | 1017.8 |
| 20260831012442 | 74 | 229 | 1.0 | 3.0 | 0.01 | 0.01 | 0.01 | 94 | 1017.8 |
| 20260831012119 | 74 | 229 | 1.0 | 2.0 | 0.01 | 0.01 | 0.01 | 94 | 1017.7 |
| 20260831011919 | 74 | 229 | 0.0 | 2.0 | 0.01 | 0.01 | 0.01 | 94 | 1017.7 |
| 20260831011617 | 74 | 229 | 0.0 | 1.0 | 0.01 | 0.01 | 0.01 | 94 | 1017.6 |
| 20260831011424 | 74 | 229 | 0.0 | 1.0 | 0.01 | 0.01 | 0.01 | 94 | 1017.6 |
| 20260831011120 | 74 | 229 | 0.0 | 1.0 | 0.01 | 0.01 | 0.01 | 93 | 1017.6 |
| 20260831010921 | 74 | 229 | 0.0 | 1.0 | 0.01 | 0.01 | 0.01 | 93 | 1017.6 |
| 20260831010646 | 74 | 229 | 0.0 | 1.0 | 0.01 | 0.01 | 0.01 | 93 | 1017.6 |
| 20260831010446 | 74 | 229 | 0.0 | 1.0 | 0.01 | 0.01 | 0.01 | 93 | 1017.5 |
| 20260831010119 | 74 | 229 | 0.0 | 1.0 | 0.01 | 0.01 | 0.01 | 93 | 1017.5 |
| 20260831005929 | 74 | 229 | 0.0 | 1.0 | 0.01 | 0.01 | 0.01 | 93 | 1017.5 |
| 20260831005622 | 74 | 229 | 0.0 | 1.0 | 0.01 | 0.01 | 0.01 | 93 | 1017.4 |
| 20260831005407 | 74 | 229 | 0.0 | 1.0 | 0.01 | 0.01 | 0.01 | 93 | 1017.3 |
| 20260831005121 | 74 | 229 | 0.0 | 0.0 | 0.01 | 0.01 | 0.01 | 93 | 1017.3 |
| 20260831004905 | 74 | 229 | 0.0 | 0.0 | 0.01 | 0.01 | 0.01 | 93 | 1017.3 |
| 20260831004618 | 74 | 229 | 0.0 | 0.0 | 0.00 | 0.00 | 0.00 | 92 | 1017.3 |
| 20260831004429 | 74 | 229 | 0.0 | 0.0 | 0.00 | 0.00 | 0.00 | 92 | 1017.3 |
| 20260831004149 | 74 | 229 | 0.0 | 0.0 | 0.00 | 0.00 | 0.00 | 92 | 1017.2 |
| 20260831003931 | 74 | 229 | 0.0 | 0.0 | 0.00 | 0.00 | 0.00 | 92 | 1017.2 |
| 20260831003625 | 75 | 229 | 0.0 | 0.0 | 0.00 | 0.00 | 0.00 | 91 | 1017.2 |
| 20260831003409 | 75 | 229 | 0.0 | 0.0 | 0.00 | 0.00 | 0.00 | 91 | 1017.1 |
| 20260831003123 | 75 | 229 | 0.0 | 0.0 | 0.00 | 0.00 | 0.00 | 91 | 1017.1 |
| 20260831002906 | 75 | 229 | 0.0 | 0.0 | 0.00 | 0.00 | 0.00 | 91 | 1017.1 |
| 20260831002626 | 75 | 229 | 0.0 | 0.0 | 0.00 | 0.00 | 0.00 | 91 | 1017.1 |
| 20260831002411 | 75 | 229 | 0.0 | 1.0 | 0.00 | 0.00 | 0.00 | 91 | 1017.0 |
| 20260831002125 | 75 | 229 | 0.0 | 1.0 | 0.00 | 0.00 | 0.00 | 91 | 1017.0 |
| 20260831001909 | 75 | 229 | 0.0 | 1.0 | 0.00 | 0.00 | 0.00 | 90 | 1017.0 |
| 20260831001630 | 75 | 229 | 0.0 | 1.0 | 0.00 | 0.00 | 0.00 | 90 | 1017.0 |
| 20260831001413 | 75 | 229 | 0.0 | 1.0 | 0.00 | 0.00 | 0.00 | 89 | 1017.0 |
| 20260831001107 | 76 | 229 | 0.0 | 0.0 | 0.00 | 0.00 | 0.00 | 89 | 1017.0 |
| 20260831000911 | 76 | 229 | 0.0 | 0.0 | 0.00 | 0.00 | 0.00 | 89 | 1016.9 |
| 20260831000630 | 76 | 229 | 0.0 | 0.0 | 0.00 | 0.00 | 0.00 | 88 | 1016.9 |
| 20260831000435 | 76 | 229 | 0.0 | 0.0 | 0.00 | 0.00 | 0.00 | 88 | 1016.9 |
| 20260831000107 | 76 | 229 | 0.0 | 0.0 | 0.00 | 0.00 | 0.00 | 87 | 1016.8 |
| 20260830235911 | 76 | 229 | 0.0 | 0.0 | 0.00 | 0.00 | 0.00 | 87 | 1016.8 |
| 20260830235611 | 76 | 229 | 0.0 | 0.0 | 0.00 | 0.00 | 0.00 | 86 | 1016.7 |
| 20260830235436 | 76 | 229 | 0.0 | 0.0 | 0.00 | 0.00 | 0.00 | 86 | 1016.7 |
| 20260830235109 | 77 | 229 | 0.0 | 0.0 | 0.00 | 0.00 | 0.00 | 85 | 1016.7 |
| 20260830234920 | 77 | 229 | 0.0 | 0.0 | 0.00 | 0.00 | 0.00 | 85 | 1016.7 |
| 20260830234612 | 77 | 229 | 0.0 | 1.0 | 0.00 | 0.00 | 0.00 | 84 | 1016.6 |
| 20260830234417 | 77 | 229 | 0.0 | 1.0 | 0.00 | 0.00 | 0.00 | 84 | 1016.6 |
| 20260830234109 | 77 | 229 | 0.0 | 1.0 | 0.00 | 0.00 | 0.00 | 84 | 1016.5 |
| 20260830233914 | 77 | 229 | 0.0 | 1.0 | 0.00 | 0.00 | 0.00 | 84 | 1016.5 |
| 20260830233616 | 78 | 229 | 0.0 | 2.0 | 0.00 | 0.00 | 0.00 | 84 | 1016.5 |
| 20260830233419 | 78 | 229 | 0.0 | 2.0 | 0.00 | 0.00 | 0.00 | 84 | 1016.5 |
| 20260830233113 | 78 | 229 | 0.0 | 2.0 | 0.00 | 0.00 | 0.00 | 83 | 1016.5 |
| 20260830232918 | 78 | 229 | 1.0 | 2.0 | 0.00 | 0.00 | 0.00 | 83 | 1016.5 |
| 20260830232612 | 78 | 229 | 1.0 | 2.0 | 0.00 | 0.00 | 0.00 | 82 | 1016.5 |
| 20260830232422 | 78 | 229 | 1.0 | 2.0 | 0.00 | 0.00 | 0.00 | 82 | 1016.5 |
| 20260830232115 | 79 | 229 | 0.0 | 2.0 | 0.00 | 0.00 | 0.00 | 81 | 1016.5 |
| 20260830231919 | 79 | 229 | 1.0 | 3.0 | 0.00 | 0.00 | 0.00 | 81 | 1016.5 |
| 20260830231611 | 79 | 229 | 1.0 | 3.0 | 0.00 | 0.00 | 0.00 | 82 | 1016.5 |
| 20260830231421 | 78 | 229 | 1.0 | 3.0 | 0.00 | 0.00 | 0.00 | 82 | 1016.5 |
| 20260830231115 | 78 | 229 | 0.0 | 2.0 | 0.00 | 0.00 | 0.00 | 81 | 1016.4 |
| 20260830230919 | 79 | 229 | 1.0 | 2.0 | 0.00 | 0.00 | 0.00 | 80 | 1016.4 |
| 20260830230613 | 79 | 229 | 1.0 | 2.0 | 0.00 | 0.00 | 0.00 | 80 | 1016.5 |
| 20260830230418 | 79 | 229 | 1.0 | 2.0 | 0.00 | 0.00 | 0.00 | 80 | 1016.5 |
| 20260830230110 | 79 | 229 | 1.0 | 3.0 | 0.00 | 0.00 | 0.00 | 80 | 1016.5 |
| 20260830225937 | 79 | 229 | 1.0 | 4.0 | 0.00 | 0.00 | 0.00 | 80 | 1016.5 |
| 20260830225614 | 79 | 229 | 1.0 | 4.0 | 0.00 | 0.00 | 0.00 | 80 | 1016.6 |
| 20260830225414 | 78 | 229 | 1.0 | 4.0 | 0.00 | 0.00 | 0.00 | 81 | 1016.5 |
| 20260830225118 | 79 | 229 | 1.0 | 2.0 | 0.00 | 0.00 | 0.00 | 80 | 1016.6 |
| 20260830224919 | 79 | 229 | 1.0 | 3.0 | 0.00 | 0.00 | 0.00 | 80 | 1016.6 |
| 20260830224616 | 79 | 229 | 1.0 | 3.0 | 0.00 | 0.00 | 0.00 | 80 | 1016.6 |
| 20260830224417 | 79 | 229 | 1.0 | 3.0 | 0.00 | 0.00 | 0.00 | 80 | 1016.6 |
| 20260830224113 | 79 | 229 | 2.0 | 3.0 | 0.00 | 0.00 | 0.00 | 80 | 1016.6 |
| 20260830223920 | 79 | 229 | 1.0 | 3.0 | 0.00 | 0.00 | 0.00 | 80 | 1016.6 |
| 20260830223636 | 79 | 229 | 0.0 | 3.0 | 0.00 | 0.00 | 0.00 | 80 | 1016.6 |
| 20260830223416 | 79 | 229 | 1.0 | 3.0 | 0.00 | 0.00 | 0.00 | 80 | 1016.6 |
| 20260830223112 | 79 | 230 | 2.0 | 3.0 | 0.00 | 0.00 | 0.00 | 79 | 1016.6 |
| 20260830222919 | 79 | 230 | 1.0 | 3.0 | 0.00 | 0.00 | 0.00 | 79 | 1016.5 |
| 20260830222617 | 79 | 230 | 1.0 | 3.0 | 0.00 | 0.00 | 0.00 | 79 | 1016.5 |
| 20260830222417 | 80 | 230 | 0.0 | 3.0 | 0.00 | 0.00 | 0.00 | 79 | 1016.5 |
| 20260830222115 | 79 | 230 | 1.0 | 4.0 | 0.00 | 0.00 | 0.00 | 79 | 1016.5 |
| 20260830221924 | 79 | 229 | 1.0 | 4.0 | 0.00 | 0.00 | 0.00 | 80 | 1016.6 |
| 20260830221620 | 79 | 230 | 1.0 | 4.0 | 0.00 | 0.00 | 0.00 | 80 | 1016.6 |
| 20260830221419 | 79 | 230 | 2.0 | 4.0 | 0.00 | 0.00 | 0.00 | 80 | 1016.6 |
| 20260830221117 | 79 | 230 | 2.0 | 4.0 | 0.00 | 0.00 | 0.00 | 79 | 1016.5 |
| 20260830220918 | 79 | 230 | 2.0 | 4.0 | 0.00 | 0.00 | 0.00 | 79 | 1016.6 |
| 20260830220643 | 79 | 230 | 2.0 | 4.0 | 0.00 | 0.00 | 0.00 | 78 | 1016.6 |
| 20260830220423 | 80 | 230 | 1.0 | 3.0 | 0.00 | 0.00 | 0.00 | 79 | 1016.7 |
| 20260830220148 | 79 | 230 | 1.0 | 6.0 | 0.00 | 0.00 | 0.00 | 80 | 1016.6 |
| 20260830215908 | 79 | 230 | 1.0 | 6.0 | 0.00 | 0.00 | 0.00 | 80 | 1016.6 |
| 20260830215605 | 79 | 230 | 3.0 | 6.0 | 0.00 | 0.00 | 0.00 | 80 | 1016.7 |
| 20260830215406 | 79 | 229 | 3.0 | 6.0 | 0.00 | 0.00 | 0.00 | 80 | 1016.7 |
| 20260830215129 | 79 | 216 | 2.0 | 8.0 | 0.00 | 0.00 | 0.00 | 80 | 1016.6 |
| 20260830214930 | 79 | 216 | 3.0 | 8.0 | 0.00 | 0.00 | 0.00 | 80 | 1016.6 |
| 20260830214607 | 79 | 223 | 3.0 | 8.0 | 0.00 | 0.00 | 0.00 | 79 | 1016.7 |
| 20260830214406 | 79 | 243 | 3.0 | 8.0 | 0.00 | 0.00 | 0.00 | 79 | 1016.8 |
| 20260830214124 | 79 | 210 | 4.0 | 8.0 | 0.00 | 0.00 | 0.00 | 79 | 1016.7 |
| 20260830213931 | 79 | 221 | 2.0 | 7.0 | 0.00 | 0.00 | 0.00 | 80 | 1016.7 |
| 20260830213629 | 79 | 222 | 3.0 | 7.0 | 0.00 | 0.00 | 0.00 | 79 | 1016.6 |
| 20260830213409 | 79 | 216 | 1.0 | 7.0 | 0.00 | 0.00 | 0.00 | 80 | 1016.6 |
| 20260830213107 | 79 | 207 | 4.0 | 7.0 | 0.00 | 0.00 | 0.00 | 78 | 1016.6 |
| 20260830212908 | 79 | 248 | 5.0 | 8.0 | 0.00 | 0.00 | 0.00 | 78 | 1016.6 |
| 20260830212606 | 80 | 202 | 4.0 | 7.0 | 0.00 | 0.00 | 0.00 | 78 | 1016.5 |
| 20260830212432 | 80 | 214 | 3.0 | 7.0 | 0.00 | 0.00 | 0.00 | 79 | 1016.5 |
| 20260830212109 | 79 | 208 | 2.0 | 8.0 | 0.00 | 0.00 | 0.00 | 79 | 1016.4 |
| 20260830211909 | 79 | 244 | 3.0 | 8.0 | 0.00 | 0.00 | 0.00 | 79 | 1016.4 |
| 20260830211606 | 79 | 245 | 4.0 | 11.0 | 0.00 | 0.00 | 0.00 | 79 | 1016.3 |
| 20260830211407 | 79 | 178 | 5.0 | 11.0 | 0.00 | 0.00 | 0.00 | 78 | 1016.3 |
| 20260830211112 | 80 | 202 | 6.0 | 11.0 | 0.00 | 0.00 | 0.00 | 78 | 1016.3 |
| 20260830210911 | 80 | 239 | 4.0 | 9.0 | 0.00 | 0.00 | 0.00 | 78 | 1016.3 |
| 20260830210630 | 80 | 206 | 3.0 | 9.0 | 0.00 | 0.00 | 0.00 | 79 | 1016.3 |
| 20260830210409 | 80 | 200 | 5.0 | 9.0 | 0.00 | 0.00 | 0.00 | 79 | 1016.4 |
| 20260830210114 | 80 | 200 | 4.0 | 7.0 | 0.00 | 0.00 | 0.00 | 79 | 1016.4 |
| 20260830205914 | 80 | 210 | 4.0 | 7.0 | 0.00 | 0.00 | 0.00 | 79 | 1016.4 |
| 20260830205633 | 80 | 233 | 2.0 | 7.0 | 0.00 | 0.00 | 0.00 | 80 | 1016.5 |
| 20260830205418 | 80 | 233 | 3.0 | 7.0 | 0.00 | 0.00 | 0.00 | 79 | 1016.5 |
| 20260830205116 | 80 | 239 | 4.0 | 8.0 | 0.00 | 0.00 | 0.00 | 78 | 1016.5 |
| 20260830204917 | 80 | 221 | 3.0 | 7.0 | 0.00 | 0.00 | 0.00 | 79 | 1016.6 |
| 20260830204642 | 80 | 215 | 2.0 | 8.0 | 0.00 | 0.00 | 0.00 | 80 | 1016.6 |
| 20260830204420 | 79 | 218 | 4.0 | 8.0 | 0.00 | 0.00 | 0.00 | 80 | 1016.6 |
| 20260830204117 | 79 | 202 | 3.0 | 8.0 | 0.00 | 0.00 | 0.00 | 80 | 1016.7 |
| 20260830203918 | 79 | 246 | 5.0 | 8.0 | 0.00 | 0.00 | 0.00 | 80 | 1016.8 |
| 20260830203643 | 79 | 206 | 4.0 | 11.0 | 0.00 | 0.00 | 0.00 | 80 | 1016.8 |
| 20260830203421 | 79 | 212 | 4.0 | 11.0 | 0.00 | 0.00 | 0.00 | 79 | 1016.8 |
| 20260830203119 | 79 | 233 | 6.0 | 11.0 | 0.00 | 0.00 | 0.00 | 78 | 1016.7 |
| 20260830202919 | 79 | 200 | 6.0 | 11.0 | 0.00 | 0.00 | 0.00 | 79 | 1016.7 |
| 20260830202616 | 79 | 226 | 5.0 | 11.0 | 0.00 | 0.00 | 0.00 | 80 | 1016.9 |
| 20260830202423 | 79 | 233 | 5.0 | 11.0 | 0.00 | 0.00 | 0.00 | 80 | 1016.9 |
| 20260830202121 | 79 | 232 | 5.0 | 10.0 | 0.00 | 0.00 | 0.00 | 79 | 1016.9 |
| 20260830201942 | 79 | 222 | 3.0 | 15.0 | 0.00 | 0.00 | 0.00 | 79 | 1016.9 |
| 20260830201625 | 80 | 237 | 4.0 | 15.0 | 0.00 | 0.00 | 0.00 | 77 | 1017.0 |
| 20260830201424 | 80 | 220 | 5.0 | 15.0 | 0.00 | 0.00 | 0.00 | 77 | 1016.9 |
| 20260830201123 | 81 | 239 | 3.0 | 8.0 | 0.00 | 0.00 | 0.00 | 78 | 1016.9 |
| 20260830200949 | 81 | 239 | 2.0 | 8.0 | 0.00 | 0.00 | 0.00 | 79 | 1016.9 |
| 20260830200606 | 80 | 196 | 3.0 | 11.0 | 0.00 | 0.00 | 0.00 | 79 | 1016.9 |
| 20260830200452 | 79 | 232 | 3.0 | 11.0 | 0.00 | 0.00 | 0.00 | 80 | 1016.9 |
| 20260830200124 | 79 | 236 | 6.0 | 11.0 | 0.00 | 0.00 | 0.00 | 79 | 1017.0 |
| 20260830195907 | 79 | 242 | 7.0 | 11.0 | 0.00 | 0.00 | 0.00 | 79 | 1017.1 |
| 20260830195619 | 79 | 297 | 3.0 | 9.0 | 0.00 | 0.00 | 0.00 | 80 | 1017.1 |
| 20260830195423 | 79 | 248 | 3.0 | 9.0 | 0.00 | 0.00 | 0.00 | 80 | 1017.2 |
| 20260830195116 | 79 | 222 | 4.0 | 12.0 | 0.00 | 0.00 | 0.00 | 79 | 1017.2 |
| 20260830194927 | 79 | 239 | 3.0 | 12.0 | 0.00 | 0.00 | 0.00 | 79 | 1017.2 |
| 20260830194619 | 80 | 195 | 5.0 | 12.0 | 0.00 | 0.00 | 0.00 | 78 | 1017.3 |
| 20260830194423 | 80 | 237 | 5.0 | 12.0 | 0.00 | 0.00 | 0.00 | 79 | 1017.2 |
| 20260830194117 | 80 | 198 | 4.0 | 8.0 | 0.00 | 0.00 | 0.00 | 79 | 1017.3 |
| 20260830193929 | 79 | 206 | 3.0 | 8.0 | 0.00 | 0.00 | 0.00 | 80 | 1017.3 |
| 20260830193621 | 79 | 258 | 3.0 | 8.0 | 0.00 | 0.00 | 0.00 | 79 | 1017.3 |
| 20260830193425 | 79 | 212 | 3.0 | 6.0 | 0.00 | 0.00 | 0.00 | 80 | 1017.3 |
| 20260830193119 | 79 | 285 | 2.0 | 7.0 | 0.00 | 0.00 | 0.00 | 80 | 1017.4 |
| 20260830192929 | 79 | 244 | 2.0 | 7.0 | 0.00 | 0.00 | 0.00 | 80 | 1017.5 |
| 20260830192624 | 79 | 214 | 3.0 | 7.0 | 0.00 | 0.00 | 0.00 | 80 | 1017.5 |
| 20260830192408 | 78 | 239 | 2.0 | 6.0 | 0.00 | 0.00 | 0.00 | 80 | 1017.5 |
| 20260830192122 | 79 | 231 | 3.0 | 7.0 | 0.00 | 0.00 | 0.00 | 80 | 1017.5 |
| 20260830191906 | 79 | 204 | 2.0 | 7.0 | 0.00 | 0.00 | 0.00 | 81 | 1017.4 |
| 20260830191625 | 78 | 202 | 2.0 | 9.0 | 0.00 | 0.00 | 0.00 | 82 | 1017.6 |
| 20260830191431 | 78 | 200 | 4.0 | 9.0 | 0.00 | 0.00 | 0.00 | 82 | 1017.6 |
| 20260830191130 | 78 | 251 | 2.0 | 9.0 | 0.00 | 0.00 | 0.00 | 81 | 1017.6 |
| 20260830190908 | 78 | 246 | 4.0 | 9.0 | 0.00 | 0.00 | 0.00 | 81 | 1017.7 |
| 20260830190629 | 78 | 247 | 2.0 | 9.0 | 0.00 | 0.00 | 0.00 | 81 | 1017.8 |
| 20260830190413 | 78 | 247 | 4.0 | 9.0 | 0.00 | 0.00 | 0.00 | 81 | 1018.0 |
| 20260830190106 | 77 | 252 | 2.0 | 9.0 | 0.00 | 0.00 | 0.00 | 82 | 1018.0 |
| 20260830185916 | 77 | 250 | 5.0 | 11.0 | 0.00 | 0.00 | 0.00 | 81 | 1017.9 |
| 20260830185611 | 77 | 244 | 2.0 | 11.0 | 0.00 | 0.00 | 0.00 | 82 | 1017.9 |
| 20260830185415 | 77 | 191 | 5.0 | 11.0 | 0.00 | 0.00 | 0.00 | 82 | 1018.0 |
| 20260830185109 | 78 | 237 | 6.0 | 11.0 | 0.00 | 0.00 | 0.00 | 80 | 1017.9 |
| 20260830184913 | 78 | 206 | 4.0 | 9.0 | 0.00 | 0.00 | 0.00 | 80 | 1018.0 |
| 20260830184614 | 78 | 224 | 4.0 | 9.0 | 0.00 | 0.00 | 0.00 | 80 | 1018.0 |
| 20260830184417 | 78 | 223 | 2.0 | 7.0 | 0.00 | 0.00 | 0.00 | 82 | 1018.1 |
| 20260830184111 | 78 | 218 | 3.0 | 7.0 | 0.00 | 0.00 | 0.00 | 82 | 1018.1 |
| 20260830183916 | 77 | 187 | 5.0 | 7.0 | 0.00 | 0.00 | 0.00 | 81 | 1018.2 |
| 20260830183609 | 77 | 241 | 2.0 | 12.0 | 0.00 | 0.00 | 0.00 | 83 | 1018.3 |
| 20260830183420 | 76 | 241 | 3.0 | 12.0 | 0.00 | 0.00 | 0.00 | 83 | 1017.8 |
| 20260830183113 | 76 | 222 | 5.0 | 12.0 | 0.00 | 0.00 | 0.00 | 83 | 1018.1 |
| 20260830182918 | 76 | 250 | 8.0 | 12.0 | 0.00 | 0.00 | 0.00 | 82 | 1018.4 |
| 20260830182611 | 76 | 204 | 4.0 | 11.0 | 0.00 | 0.00 | 0.00 | 82 | 1018.3 |
| 20260830182414 | 76 | 185 | 6.0 | 11.0 | 0.00 | 0.00 | 0.00 | 82 | 1018.4 |
| 20260830182108 | 76 | 223 | 8.0 | 11.0 | 0.00 | 0.00 | 0.00 | 81 | 1018.5 |
| 20260830181918 | 77 | 210 | 6.0 | 9.0 | 0.00 | 0.00 | 0.00 | 82 | 1018.5 |
| 20260830181611 | 76 | 228 | 4.0 | 10.0 | 0.00 | 0.00 | 0.00 | 82 | 1018.5 |
| 20260830181416 | 77 | 266 | 5.0 | 16.0 | 0.00 | 0.00 | 0.00 | 82 | 1018.5 |
| 20260830181110 | 76 | 191 | 4.0 | 16.0 | 0.00 | 0.00 | 0.00 | 82 | 1018.5 |
| 20260830180921 | 76 | 235 | 6.0 | 16.0 | 0.00 | 0.00 | 0.00 | 82 | 1018.5 |
| 20260830180613 | 76 | 238 | 5.0 | 11.0 | 0.00 | 0.00 | 0.00 | 82 | 1018.6 |
| 20260830180417 | 76 | 256 | 4.0 | 11.0 | 0.00 | 0.00 | 0.00 | 81 | 1018.7 |
| 20260830180110 | 76 | 214 | 5.0 | 11.0 | 0.00 | 0.00 | 0.00 | 82 | 1018.7 |
| 20260830175914 | 76 | 241 | 7.0 | 12.0 | 0.00 | 0.00 | 0.00 | 81 | 1018.7 |
| 20260830175635 | 76 | 195 | 4.0 | 12.0 | 0.00 | 0.00 | 0.00 | 82 | 1018.7 |
| 20260830175418 | 76 | 237 | 6.0 | 12.0 | 0.00 | 0.00 | 0.00 | 81 | 1018.6 |
| 20260830175111 | 77 | 228 | 7.0 | 10.0 | 0.00 | 0.00 | 0.00 | 80 | 1018.6 |
| 20260830174922 | 77 | 212 | 5.0 | 10.0 | 0.00 | 0.00 | 0.00 | 80 | 1018.7 |
| 20260830174616 | 77 | 220 | 5.0 | 9.0 | 0.00 | 0.00 | 0.00 | 80 | 1018.9 |
| 20260830174436 | 77 | 220 | 3.0 | 8.0 | 0.00 | 0.00 | 0.00 | 79 | 1018.9 |
| 20260830174112 | 77 | 207 | 3.0 | 8.0 | 0.00 | 0.00 | 0.00 | 80 | 1018.9 |
| 20260830173919 | 77 | 192 | 1.0 | 8.0 | 0.00 | 0.00 | 0.00 | 82 | 1018.8 |
| 20260830173617 | 76 | 193 | 5.0 | 9.0 | 0.00 | 0.00 | 0.00 | 80 | 1018.9 |
| 20260830173438 | 76 | 248 | 3.0 | 9.0 | 0.00 | 0.00 | 0.00 | 81 | 1018.9 |
| 20260830173121 | 76 | 202 | 3.0 | 10.0 | 0.00 | 0.00 | 0.00 | 81 | 1018.9 |
| 20260830172922 | 76 | 189 | 6.0 | 10.0 | 0.00 | 0.00 | 0.00 | 80 | 1018.9 |
| 20260830172618 | 76 | 202 | 6.0 | 10.0 | 0.00 | 0.00 | 0.00 | 80 | 1018.9 |
| 20260830172419 | 76 | 193 | 6.0 | 10.0 | 0.00 | 0.00 | 0.00 | 79 | 1018.9 |
| 20260830172116 | 77 | 189 | 5.0 | 11.0 | 0.00 | 0.00 | 0.00 | 79 | 1019.0 |
| 20260830171923 | 77 | 212 | 3.0 | 11.0 | 0.00 | 0.00 | 0.00 | 80 | 1019.0 |
| 20260830171619 | 76 | 254 | 4.0 | 11.0 | 0.00 | 0.00 | 0.00 | 80 | 1019.0 |
| 20260830171420 | 76 | 201 | 4.0 | 11.0 | 0.00 | 0.00 | 0.00 | 80 | 1019.0 |
| 20260830171145 | 76 | 207 | 4.0 | 13.0 | 0.00 | 0.00 | 0.00 | 80 | 1019.1 |
| 20260830170925 | 76 | 246 | 4.0 | 13.0 | 0.00 | 0.00 | 0.00 | 79 | 1019.1 |
| 20260830170623 | 76 | 234 | 7.0 | 13.0 | 0.00 | 0.00 | 0.00 | 78 | 1019.1 |
| 20260830170450 | 76 | 234 | 6.0 | 13.0 | 0.00 | 0.00 | 0.00 | 79 | 1019.1 |
| 20260830170105 | 76 | 190 | 6.0 | 12.0 | 0.00 | 0.00 | 0.00 | 78 | 1019.1 |
| 20260830165946 | 76 | 217 | 4.0 | 12.0 | 0.00 | 0.00 | 0.00 | 79 | 1019.0 |
| 20260830165629 | 75 | 204 | 6.0 | 12.0 | 0.00 | 0.00 | 0.00 | 80 | 1019.0 |
| 20260830165429 | 75 | 196 | 4.0 | 9.0 | 0.00 | 0.00 | 0.00 | 81 | 1019.0 |
| 20260830165106 | 74 | 194 | 4.0 | 11.0 | 0.00 | 0.00 | 0.00 | 81 | 1019.0 |
| 20260830164906 | 74 | 147 | 4.0 | 11.0 | 0.00 | 0.00 | 0.00 | 80 | 1019.1 |
| 20260830164631 | 74 | 221 | 6.0 | 11.0 | 0.00 | 0.00 | 0.00 | 80 | 1019.2 |
| 20260830164411 | 74 | 208 | 6.0 | 11.0 | 0.00 | 0.00 | 0.00 | 80 | 1019.2 |
| 20260830164108 | 74 | 216 | 7.0 | 11.0 | 0.00 | 0.00 | 0.00 | 79 | 1019.2 |
| 20260830163909 | 74 | 205 | 8.0 | 13.0 | 0.00 | 0.00 | 0.00 | 78 | 1019.2 |
| 20260830163612 | 75 | 222 | 3.0 | 9.0 | 0.00 | 0.00 | 0.00 | 78 | 1019.2 |
| 20260830163413 | 74 | 218 | 4.0 | 9.0 | 0.00 | 0.00 | 0.00 | 78 | 1019.2 |
| 20260830163110 | 74 | 240 | 4.0 | 9.0 | 0.00 | 0.00 | 0.00 | 78 | 1019.1 |
| 20260830162937 | 74 | 247 | 6.0 | 9.0 | 0.00 | 0.00 | 0.00 | 78 | 1019.1 |
| 20260830162614 | 74 | 242 | 4.0 | 7.0 | 0.00 | 0.00 | 0.00 | 78 | 1019.1 |
| 20260830162413 | 74 | 196 | 4.0 | 8.0 | 0.00 | 0.00 | 0.00 | 77 | 1019.1 |
| 20260830162111 | 74 | 193 | 5.0 | 11.0 | 0.00 | 0.00 | 0.00 | 77 | 1019.3 |
| 20260830161911 | 75 | 206 | 4.0 | 11.0 | 0.00 | 0.00 | 0.00 | 77 | 1019.2 |
| 20260830161636 | 75 | 216 | 5.0 | 11.0 | 0.00 | 0.00 | 0.00 | 76 | 1019.2 |
| 20260830161415 | 75 | 241 | 5.0 | 11.0 | 0.00 | 0.00 | 0.00 | 76 | 1019.2 |
| 20260830161111 | 75 | 201 | 4.0 | 9.0 | 0.00 | 0.00 | 0.00 | 77 | 1019.3 |
| 20260830160918 | 75 | 252 | 4.0 | 9.0 | 0.00 | 0.00 | 0.00 | 77 | 1019.3 |
| 20260830160615 | 75 | 246 | 5.0 | 9.0 | 0.00 | 0.00 | 0.00 | 75 | 1019.5 |
| 20260830160415 | 75 | 210 | 6.0 | 11.0 | 0.00 | 0.00 | 0.00 | 75 | 1019.6 |
| 20260830160113 | 75 | 245 | 4.0 | 11.0 | 0.00 | 0.00 | 0.00 | 74 | 1019.6 |
| 20260830155913 | 75 | 235 | 5.0 | 11.0 | 0.00 | 0.00 | 0.00 | 73 | 1019.7 |
| 20260830155617 | 75 | 250 | 5.0 | 10.0 | 0.00 | 0.00 | 0.00 | 72 | 1019.7 |
| 20260830155417 | 76 | 245 | 6.0 | 13.0 | 0.00 | 0.00 | 0.00 | 72 | 1019.8 |
| 20260830155114 | 76 | 225 | 4.0 | 13.0 | 0.00 | 0.00 | 0.00 | 72 | 1019.7 |
| 20260830154915 | 76 | 212 | 4.0 | 13.0 | 0.00 | 0.00 | 0.00 | 72 | 1019.7 |
| 20260830154611 | 76 | 247 | 6.0 | 11.0 | 0.00 | 0.00 | 0.00 | 71 | 1019.8 |
| 20260830154418 | 76 | 210 | 7.0 | 11.0 | 0.00 | 0.00 | 0.00 | 71 | 1019.8 |
| 20260830154116 | 76 | 219 | 4.0 | 10.0 | 0.00 | 0.00 | 0.00 | 71 | 1019.8 |
| 20260830153917 | 76 | 245 | 3.0 | 10.0 | 0.00 | 0.00 | 0.00 | 72 | 1019.8 |
| 20260830153615 | 75 | 216 | 6.0 | 10.0 | 0.00 | 0.00 | 0.00 | 71 | 1019.8 |
| 20260830153415 | 75 | 207 | 6.0 | 11.0 | 0.00 | 0.00 | 0.00 | 71 | 1019.7 |
| 20260830153112 | 75 | 240 | 5.0 | 12.0 | 0.00 | 0.00 | 0.00 | 71 | 1019.7 |
| 20260830152916 | 75 | 171 | 4.0 | 12.0 | 0.00 | 0.00 | 0.00 | 71 | 1019.7 |
| 20260830152614 | 75 | 229 | 3.0 | 12.0 | 0.00 | 0.00 | 0.00 | 70 | 1019.8 |
| 20260830152414 | 75 | 209 | 8.0 | 12.0 | 0.00 | 0.00 | 0.00 | 69 | 1019.8 |
| 20260830152112 | 76 | 200 | 5.0 | 12.0 | 0.00 | 0.00 | 0.00 | 69 | 1019.9 |
| 20260830151912 | 76 | 198 | 3.0 | 10.0 | 0.00 | 0.00 | 0.00 | 72 | 1019.9 |
| 20260830151616 | 75 | 214 | 5.0 | 10.0 | 0.00 | 0.00 | 0.00 | 69 | 1019.9 |
| 20260830151414 | 75 | 198 | 4.0 | 10.0 | 0.00 | 0.00 | 0.00 | 69 | 1019.9 |
| 20260830151113 | 75 | 232 | 6.0 | 10.0 | 0.00 | 0.00 | 0.00 | 69 | 1019.9 |
| 20260830150913 | 75 | 201 | 3.0 | 10.0 | 0.00 | 0.00 | 0.00 | 69 | 1020.0 |
| 20260830150617 | 74 | 231 | 5.0 | 10.0 | 0.00 | 0.00 | 0.00 | 68 | 1020.1 |
| 20260830150418 | 74 | 203 | 5.0 | 10.0 | 0.00 | 0.00 | 0.00 | 69 | 1020.1 |
| 20260830150114 | 74 | 177 | 4.0 | 7.0 | 0.00 | 0.00 | 0.00 | 70 | 1020.1 |
| 20260830145912 | 74 | 223 | 3.0 | 7.0 | 0.00 | 0.00 | 0.00 | 70 | 1020.2 |
| 20260830145633 | 74 | 200 | 2.0 | 7.0 | 0.00 | 0.00 | 0.00 | 71 | 1020.2 |
| 20260830145415 | 74 | 200 | 3.0 | 7.0 | 0.00 | 0.00 | 0.00 | 71 | 1020.3 |
| 20260830145129 | 74 | 208 | 4.0 | 8.0 | 0.00 | 0.00 | 0.00 | 69 | 1020.4 |
| 20260830144939 | 74 | 208 | 4.0 | 10.0 | 0.00 | 0.00 | 0.00 | 71 | 1020.4 |
| 20260830144612 | 73 | 212 | 5.0 | 10.0 | 0.00 | 0.00 | 0.00 | 69 | 1020.4 |
| 20260830144416 | 73 | 187 | 4.0 | 10.0 | 0.00 | 0.00 | 0.00 | 71 | 1020.5 |
| 20260830144137 | 73 | 238 | 5.0 | 10.0 | 0.00 | 0.00 | 0.00 | 70 | 1020.5 |
| 20260830143920 | 73 | 190 | 4.0 | 8.0 | 0.00 | 0.00 | 0.00 | 71 | 1020.4 |
| 20260830143640 | 73 | 184 | 3.0 | 7.0 | 0.00 | 0.00 | 0.00 | 71 | 1020.4 |
| 20260830143421 | 73 | 194 | 4.0 | 7.0 | 0.00 | 0.00 | 0.00 | 71 | 1020.5 |
| 20260830143115 | 73 | 174 | 4.0 | 7.0 | 0.00 | 0.00 | 0.00 | 71 | 1020.5 |
| 20260830142919 | 73 | 192 | 3.0 | 7.0 | 0.00 | 0.00 | 0.00 | 72 | 1020.5 |
| 20260830142621 | 73 | 196 | 4.0 | 8.0 | 0.00 | 0.00 | 0.00 | 71 | 1020.4 |
| 20260830142424 | 73 | 220 | 4.0 | 8.0 | 0.00 | 0.00 | 0.00 | 72 | 1020.5 |
| 20260830142118 | 73 | 205 | 4.0 | 8.0 | 0.00 | 0.00 | 0.00 | 70 | 1020.5 |
| 20260830141922 | 73 | 220 | 4.0 | 8.0 | 0.00 | 0.00 | 0.00 | 70 | 1020.5 |
| 20260830141615 | 73 | 222 | 4.0 | 9.0 | 0.00 | 0.00 | 0.00 | 71 | 1020.5 |
| 20260830141425 | 73 | 214 | 4.0 | 9.0 | 0.00 | 0.00 | 0.00 | 72 | 1020.5 |
| 20260830141119 | 72 | 233 | 3.0 | 9.0 | 0.00 | 0.00 | 0.00 | 71 | 1020.5 |
| 20260830140924 | 72 | 237 | 6.0 | 9.0 | 0.00 | 0.00 | 0.00 | 72 | 1020.5 |
| 20260830140645 | 72 | 193 | 4.0 | 8.0 | 0.00 | 0.00 | 0.00 | 74 | 1020.4 |
| 20260830140407 | 72 | 199 | 5.0 | 7.0 | 0.00 | 0.00 | 0.00 | 75 | 1020.5 |
| 20260830140120 | 71 | 203 | 4.0 | 8.0 | 0.00 | 0.00 | 0.00 | 75 | 1020.5 |
| 20260830135920 | 71 | 187 | 4.0 | 8.0 | 0.00 | 0.00 | 0.00 | 76 | 1020.5 |
| 20260830135617 | 71 | 210 | 3.0 | 8.0 | 0.00 | 0.00 | 0.00 | 76 | 1020.5 |
| 20260830135423 | 71 | 196 | 5.0 | 8.0 | 0.00 | 0.00 | 0.00 | 75 | 1020.5 |
| 20260830135121 | 71 | 183 | 3.0 | 6.0 | 0.00 | 0.00 | 0.00 | 79 | 1020.5 |
| 20260830134921 | 71 | 235 | 2.0 | 5.0 | 0.00 | 0.00 | 0.00 | 80 | 1020.5 |
| 20260830134619 | 71 | 162 | 3.0 | 5.0 | 0.00 | 0.00 | 0.00 | 81 | 1020.5 |
| 20260830134419 | 70 | 144 | 2.0 | 5.0 | 0.00 | 0.00 | 0.00 | 81 | 1020.6 |
| 20260830134144 | 70 | 171 | 3.0 | 6.0 | 0.00 | 0.00 | 0.00 | 81 | 1020.7 |
| 20260830133924 | 70 | 183 | 2.0 | 6.0 | 0.00 | 0.00 | 0.00 | 82 | 1020.6 |
| 20260830133621 | 69 | 180 | 3.0 | 6.0 | 0.00 | 0.00 | 0.00 | 82 | 1020.7 |
| 20260830133429 | 69 | 200 | 3.0 | 6.0 | 0.00 | 0.00 | 0.00 | 84 | 1020.7 |
| 20260830133126 | 68 | 222 | 4.0 | 7.0 | 0.00 | 0.00 | 0.00 | 84 | 1020.7 |
| 20260830132906 | 68 | 210 | 4.0 | 7.0 | 0.00 | 0.00 | 0.00 | 85 | 1020.7 |
| 20260830132624 | 68 | 181 | 2.0 | 5.0 | 0.00 | 0.00 | 0.00 | 85 | 1020.7 |
| 20260830132424 | 67 | 208 | 3.0 | 5.0 | 0.00 | 0.00 | 0.00 | 85 | 1020.7 |
| 20260830132122 | 67 | 207 | 2.0 | 5.0 | 0.00 | 0.00 | 0.00 | 85 | 1020.7 |
| 20260830131929 | 67 | 186 | 3.0 | 5.0 | 0.00 | 0.00 | 0.00 | 85 | 1020.7 |
| 20260830131607 | 67 | 168 | 2.0 | 5.0 | 0.00 | 0.00 | 0.00 | 87 | 1020.7 |
| 20260830131407 | 67 | 177 | 2.0 | 4.0 | 0.00 | 0.00 | 0.00 | 87 | 1020.7 |
| 20260830131125 | 67 | 213 | 2.0 | 4.0 | 0.00 | 0.00 | 0.00 | 87 | 1020.8 |
| 20260830130932 | 66 | 214 | 2.0 | 6.0 | 0.00 | 0.00 | 0.00 | 87 | 1020.8 |
| 20260830130629 | 66 | 214 | 2.0 | 6.0 | 0.00 | 0.00 | 0.00 | 87 | 1020.9 |
| 20260830130410 | 66 | 214 | 2.0 | 6.0 | 0.00 | 0.00 | 0.00 | 87 | 1020.9 |
| 20260830130106 | 66 | 239 | 2.0 | 4.0 | 0.00 | 0.00 | 0.00 | 88 | 1021.1 |
| 20260830125953 | 66 | 239 | 2.0 | 4.0 | 0.00 | 0.00 | 0.00 | 88 | 1021.0 |
| 20260830125607 | 66 | 239 | 1.0 | 3.0 | 0.00 | 0.00 | 0.00 | 89 | 1021.0 |
| 20260830125407 | 65 | 239 | 2.0 | 5.0 | 0.00 | 0.00 | 0.00 | 89 | 1021.1 |
| 20260830125124 | 65 | 239 | 2.0 | 5.0 | 0.00 | 0.00 | 0.00 | 89 | 1021.0 |
| 20260830124930 | 65 | 239 | 2.0 | 5.0 | 0.00 | 0.00 | 0.00 | 90 | 1021.1 |
| 20260830124627 | 65 | 239 | 2.0 | 5.0 | 0.00 | 0.00 | 0.00 | 91 | 1021.0 |
| 20260830124406 | 65 | 261 | 1.0 | 3.0 | 0.00 | 0.00 | 0.00 | 93 | 1021.1 |
| 20260830124123 | 64 | 261 | 1.0 | 4.0 | 0.00 | 0.00 | 0.00 | 94 | 1021.1 |
| 20260830123930 | 64 | 261 | 1.0 | 4.0 | 0.00 | 0.00 | 0.00 | 94 | 1021.1 |
| 20260830123607 | 63 | 261 | 2.0 | 4.0 | 0.00 | 0.00 | 0.00 | 94 | 1021.2 |
| 20260830123406 | 63 | 261 | 2.0 | 4.0 | 0.00 | 0.00 | 0.00 | 95 | 1021.1 |
| 20260830123123 | 63 | 261 | 2.0 | 4.0 | 0.00 | 0.00 | 0.00 | 95 | 1021.2 |
| 20260830122924 | 63 | 261 | 3.0 | 4.0 | 0.00 | 0.00 | 0.00 | 96 | 1021.2 |
| 20260830122627 | 62 | 262 | 1.0 | 3.0 | 0.00 | 0.00 | 0.00 | 96 | 1021.2 |
| 20260830122409 | 62 | 262 | 2.0 | 3.0 | 0.00 | 0.00 | 0.00 | 96 | 1021.1 |
| 20260830122146 | 62 | 262 | 2.0 | 3.0 | 0.00 | 0.00 | 0.00 | 96 | 1021.1 |
| 20260830121905 | 62 | 262 | 1.0 | 3.0 | 0.00 | 0.00 | 0.00 | 96 | 1021.1 |
| 20260830121608 | 62 | 262 | 2.0 | 3.0 | 0.00 | 0.00 | 0.00 | 96 | 1021.2 |
| 20260830121409 | 61 | 262 | 2.0 | 2.0 | 0.00 | 0.00 | 0.00 | 97 | 1021.1 |
| 20260830121106 | 61 | 262 | 1.0 | 2.0 | 0.00 | 0.00 | 0.00 | 97 | 1021.1 |
| 20260830120931 | 61 | 262 | 1.0 | 2.0 | 0.00 | 0.00 | 0.00 | 97 | 1021.2 |
| 20260830120629 | 61 | 262 | 0.0 | 0.0 | 0.00 | 0.00 | 0.00 | 97 | 1021.1 |
| 20260830120409 | 61 | 262 | 0.0 | 0.0 | 0.00 | 0.00 | 0.00 | 97 | 1021.2 |
| 20260830120107 | 61 | 262 | 0.0 | 0.0 | 0.00 | 0.00 | 0.00 | 97 | 1021.3 |
| 20260830115907 | 61 | 262 | 0.0 | 0.0 | 0.00 | 0.00 | 0.00 | 97 | 1021.3 |
| 20260830115632 | 61 | 262 | 0.0 | 0.0 | 0.00 | 0.00 | 0.00 | 97 | 1021.3 |
| 20260830115431 | 60 | 262 | 0.0 | 0.0 | 0.00 | 0.00 | 0.00 | 97 | 1021.3 |
| 20260830115109 | 60 | 262 | 0.0 | 0.0 | 0.00 | 0.00 | 0.00 | 97 | 1021.3 |
| 20260830114909 | 60 | 262 | 0.0 | 0.0 | 0.00 | 0.00 | 0.00 | 97 | 1021.3 |
| 20260830114607 | 60 | 262 | 0.0 | 0.0 | 0.00 | 0.00 | 0.00 | 97 | 1021.3 |
| 20260830114407 | 60 | 262 | 0.0 | 0.0 | 0.00 | 0.00 | 0.00 | 97 | 1021.3 |
| 20260830114131 | 60 | 262 | 0.0 | 0.0 | 0.00 | 0.00 | 0.00 | 97 | 1021.3 |
| 20260830113912 | 60 | 262 | 0.0 | 0.0 | 0.00 | 0.00 | 0.00 | 97 | 1021.3 |
| 20260830113609 | 60 | 262 | 0.0 | 0.0 | 0.00 | 0.00 | 0.00 | 97 | 1021.4 |
| 20260830113410 | 60 | 262 | 0.0 | 0.0 | 0.00 | 0.00 | 0.00 | 97 | 1021.4 |
| 20260830113127 | 60 | 262 | 0.0 | 0.0 | 0.00 | 0.00 | 0.00 | 97 | 1021.4 |
| 20260830112933 | 60 | 262 | 0.0 | 1.0 | 0.00 | 0.00 | 0.00 | 97 | 1021.5 |
| 20260830112608 | 60 | 262 | 0.0 | 1.0 | 0.00 | 0.00 | 0.00 | 97 | 1021.5 |
| 20260830112408 | 60 | 262 | 0.0 | 1.0 | 0.00 | 0.00 | 0.00 | 97 | 1021.4 |
| 20260830112112 | 60 | 262 | 1.0 | 1.0 | 0.00 | 0.00 | 0.00 | 97 | 1021.4 |
| 20260830111913 | 59 | 262 | 0.0 | 0.0 | 0.00 | 0.00 | 0.00 | 97 | 1021.4 |
| 20260830111609 | 59 | 262 | 0.0 | 0.0 | 0.00 | 0.00 | 0.00 | 97 | 1021.3 |
| 20260830111411 | 59 | 262 | 0.0 | 0.0 | 0.00 | 0.00 | 0.00 | 97 | 1021.3 |
| 20260830111114 | 59 | 262 | 0.0 | 0.0 | 0.00 | 0.00 | 0.00 | 96 | 1021.3 |
| 20260830110915 | 59 | 262 | 0.0 | 0.0 | 0.00 | 0.00 | 0.00 | 96 | 1021.3 |
| 20260830110612 | 59 | 262 | 0.0 | 0.0 | 0.00 | 0.00 | 0.00 | 96 | 1021.2 |
| 20260830110413 | 59 | 262 | 0.0 | 0.0 | 0.00 | 0.00 | 0.00 | 96 | 1021.3 |